FW5892 Weather Reports


Display with metric or nautical units.
time (UTC)temp
F
wind
direction
speed
MPH
gust
MPH
rain 1hr
in
rain 24hr
in
rain mn
in
humidity
%
barometer
mb
20260506051017 41 114 0.0 1.0 0.00 0.02 0.00 83 1024.5
20260506050521 41 114 0.0 2.0 0.00 0.02 0.00 82 1024.5
20260506045015 41 114 0.0 1.0 0.00 0.14 0.00 83 1024.3
20260506044515 41 114 0.0 1.0 0.00 0.14 0.00 83 1024.2
20260506044018 41 114 0.0 1.0 0.00 0.14 0.00 83 1024.2
20260506043514 42 114 0.0 1.0 0.00 0.14 0.00 83 1024.1
20260506043014 42 114 0.0 2.0 0.00 0.14 0.00 83 1024.2
20260506042514 42 114 0.0 2.0 0.00 0.14 0.00 83 1024.1
20260506042018 42 114 0.0 2.0 0.00 0.14 0.00 83 1024.0
20260506041517 42 114 0.0 1.0 0.00 0.14 0.00 83 1024.0
20260506041013 42 114 0.0 2.0 0.00 0.14 0.00 83 1024.1
20260506040513 42 114 0.0 2.0 0.00 0.14 0.00 83 1024.1
20260506040036 42 114 0.0 4.0 0.00 0.25 0.00 83 1023.9
20260506035513 43 114 1.0 4.0 0.00 0.25 0.00 84 1024.0
20260506035013 43 19 0.0 3.0 0.00 0.25 0.00 83 1023.9
20260506034512 43 19 0.0 2.0 0.00 0.25 0.00 83 1023.8
20260506034011 43 19 0.0 3.0 0.00 0.25 0.00 84 1023.6
20260506033511 43 19 1.0 3.0 0.00 0.25 0.00 85 1023.5
20260506033011 44 19 1.0 2.0 0.00 0.25 0.00 84 1023.8
20260506032510 44 19 0.0 1.0 0.00 0.25 0.00 84 1023.6
20260506032011 44 19 0.0 1.0 0.00 0.25 0.00 85 1023.6
20260506031524 44 19 0.0 0.0 0.00 0.25 0.00 84 1023.5
20260506031013 44 19 0.0 3.0 0.00 0.25 0.00 84 1023.4
20260506030511 44 19 0.0 3.0 0.00 0.25 0.00 84 1023.3
20260506030012 44 331 0.0 3.0 0.00 0.44 0.00 85 1023.3
20260506025510 44 331 1.0 4.0 0.00 0.44 0.00 85 1023.3
20260506025011 44 331 2.0 4.0 0.00 0.44 0.00 86 1023.2
20260506024517 45 5 0.0 3.0 0.00 0.44 0.00 86 1023.2
20260506024009 45 5 2.0 5.0 0.00 0.44 0.00 87 1023.1
20260506023509 46 355 2.0 5.0 0.00 0.44 0.00 87 1023.1
20260506023010 47 360 1.0 5.0 0.00 0.44 0.00 87 1023.1
20260506022509 47 30 1.0 3.0 0.00 0.44 0.00 86 1023.1
20260506022008 48 355 2.0 3.0 0.00 0.44 0.00 85 1022.9
20260506021510 48 5 0.0 3.0 0.00 0.44 0.00 85 1022.9
20260506021009 49 5 1.0 3.0 0.00 0.44 0.00 84 1022.9
20260506020511 49 28 1.0 4.0 0.00 0.44 0.00 85 1022.8
20260506020009 49 5 2.0 4.0 0.00 0.53 0.00 85 1022.8
20260506015508 48 62 1.0 5.0 0.00 0.53 0.00 85 1022.9
20260506015008 49 88 2.0 5.0 0.00 0.53 0.00 84 1022.9
20260506014511 49 23 1.0 5.0 0.00 0.53 0.00 84 1022.7
20260506014007 48 88 1.0 5.0 0.00 0.53 0.00 85 1022.7
20260506013509 48 95 1.0 4.0 0.00 0.53 0.00 85 1022.7
20260506013007 49 61 2.0 6.0 0.00 0.53 0.00 84 1022.7
20260506012508 50 69 3.0 8.0 0.00 0.53 0.00 81 1022.8
20260506012006 51 62 2.0 8.0 0.00 0.53 0.00 79 1022.9
20260506011507 51 105 2.0 6.0 0.00 0.53 0.00 79 1022.7
20260506011006 51 5 2.0 5.0 0.00 0.53 0.00 82 1022.6
20260506010506 50 26 2.0 4.0 0.00 0.53 0.00 83 1022.7
20260506010012 49 303 0.0 4.0 0.00 0.54 0.00 85 1022.8
20260506005506 48 303 1.0 5.0 0.00 0.54 0.00 86 1022.9
20260506005009 48 265 1.0 5.0 0.00 0.54 0.00 86 1022.8
20260506004511 48 294 3.0 6.0 0.00 0.54 0.00 85 1022.8
20260506004009 48 12 3.0 9.0 0.00 0.54 0.00 84 1022.9
20260506003507 50 344 3.0 9.0 0.00 0.54 0.00 83 1022.7
20260506003008 50 355 4.0 9.0 0.00 0.54 0.00 80 1022.7
20260506002504 51 15 2.0 5.0 0.00 0.54 0.00 80 1022.6
20260506002004 51 5 2.0 5.0 0.00 0.54 0.00 79 1022.6
20260506001504 51 22 1.0 5.0 0.00 0.54 0.00 80 1022.5
20260506001004 50 46 1.0 6.0 0.00 0.54 0.00 82 1022.7
20260506000502 49 19 3.0 6.0 0.00 0.54 0.00 82 1022.6
20260506000003 49 5 2.0 5.0 0.00 0.56 0.00 81 1022.7
20260505235502 51 342 3.0 8.0 0.00 0.56 0.00 77 1022.8
20260505235002 52 63 1.0 9.0 0.00 0.56 0.00 76 1022.8
20260505234502 54 14 1.0 9.0 0.00 0.56 0.00 73 1022.8
20260505234002 55 54 1.0 5.0 0.00 0.56 0.00 71 1022.7
20260505233501 55 10 1.0 6.0 0.00 0.56 0.00 68 1022.6
20260505233001 56 61 3.0 6.0 0.00 0.56 0.00 66 1022.6
20260505232504 56 11 0.0 5.0 0.00 0.56 0.00 66 1022.7
20260505232101 56 14 2.0 5.0 0.00 0.56 0.00 65 1022.7
20260505231606 58 98 2.0 6.0 0.00 0.56 0.00 62 1022.8
20260505231103 58 279 3.0 6.0 0.00 0.56 0.00 50 1022.8
20260505230558 56 22 0.0 10.0 0.00 0.56 0.00 54 1022.8
20260505230059 56 289 1.0 10.0 0.00 0.57 0.00 52 1022.8
20260505225557 56 130 2.0 9.0 0.00 0.57 0.00 52 1022.9
20260505225057 56 60 3.0 7.0 0.00 0.57 0.00 51 1022.9
20260505224556 55 102 3.0 7.0 0.00 0.57 0.00 52 1022.9
20260505224055 55 161 2.0 14.0 0.00 0.57 0.00 52 1022.8
20260505223556 55 177 5.0 14.0 0.00 0.57 0.00 51 1023.0
20260505223058 56 241 1.0 9.0 0.00 0.57 0.00 53 1023.0
20260505222555 56 102 1.0 6.0 0.00 0.57 0.00 57 1023.0
20260505222055 56 78 0.0 11.0 0.00 0.57 0.00 60 1023.1
20260505221557 55 120 6.0 11.0 0.00 0.57 0.00 57 1023.2
20260505221054 55 349 2.0 9.0 0.00 0.57 0.00 54 1023.2
20260505220557 56 331 2.0 15.0 0.00 0.57 0.00 53 1023.3
20260505220053 56 101 1.0 10.0 0.00 0.62 0.00 55 1023.3
20260505215552 56 355 4.0 10.0 0.00 0.62 0.00 53 1023.2
20260505215052 55 90 2.0 9.0 0.00 0.62 0.00 58 1023.2
20260505214555 55 97 1.0 9.0 0.00 0.62 0.00 60 1023.4
20260505214051 55 114 2.0 8.0 0.00 0.62 0.00 63 1023.3
20260505213550 56 149 5.0 9.0 0.00 0.62 0.00 59 1023.3
20260505213051 55 56 1.0 11.0 0.00 0.62 0.00 61 1023.3
20260505212549 55 232 1.0 11.0 0.00 0.62 0.00 64 1023.3
20260505212048 55 327 2.0 6.0 0.00 0.62 0.00 62 1023.4
20260505211547 55 64 2.0 7.0 0.00 0.62 0.00 63 1023.5
20260505211051 54 77 1.0 8.0 0.00 0.62 0.00 67 1023.3
20260505210544 53 93 4.0 11.0 0.00 0.62 0.00 64 1023.4
20260505210044 53 61 4.0 11.0 0.00 0.64 0.00 65 1023.4
20260505205544 53 17 3.0 9.0 0.00 0.64 0.00 66 1023.4
20260505205044 53 92 3.0 8.0 0.00 0.64 0.00 65 1023.4
20260505204547 53 329 2.0 6.0 0.00 0.64 0.00 68 1023.4
20260505204042 53 259 2.0 8.0 0.00 0.64 0.00 74 1023.5
20260505203546 52 269 2.0 9.0 0.00 0.64 0.00 73 1023.4
20260505203047 52 315 2.0 9.0 0.00 0.64 0.00 70 1023.3
20260505202544 52 119 4.0 7.0 0.00 0.64 0.00 69 1023.3
20260505202045 52 360 1.0 9.0 0.00 0.64 0.00 74 1023.5
20260505201540 52 130 2.0 9.0 0.00 0.64 0.00 72 1023.5
20260505201040 53 86 2.0 6.0 0.00 0.64 0.00 75 1023.6
20260505200540 53 144 3.0 6.0 0.00 0.64 0.00 71 1023.6
20260505200046 52 5 1.0 6.0 0.00 0.64 0.00 75 1023.7
20260505195538 53 270 1.0 7.0 0.00 0.64 0.00 76 1023.8
20260505195036 51 88 2.0 7.0 0.00 0.64 0.00 75 1023.7
20260505194538 51 111 2.0 5.0 0.00 0.64 0.00 75 1023.8
20260505194035 50 27 1.0 6.0 0.00 0.64 0.00 79 1023.8
20260505193536 50 71 4.0 11.0 0.00 0.64 0.00 76 1023.9
20260505193033 50 126 5.0 11.0 0.00 0.64 0.00 78 1023.8
20260505192533 49 33 1.0 9.0 0.00 0.64 0.00 83 1023.9
20260505192032 48 18 4.0 9.0 0.00 0.64 0.00 81 1023.8
20260505191531 49 166 3.0 9.0 0.00 0.64 0.00 82 1023.9
20260505191035 48 96 3.0 8.0 0.00 0.64 0.00 81 1023.6
20260505190529 48 360 3.0 10.0 0.00 0.64 0.00 84 1023.6
20260505190036 48 169 1.0 6.0 0.00 0.71 0.00 83 1023.6
20260505185529 48 64 2.0 6.0 0.00 0.71 0.00 82 1023.6
20260505185028 48 113 3.0 7.0 0.00 0.71 0.00 81 1023.5
20260505184528 48 59 1.0 4.0 0.00 0.71 0.00 83 1023.6
20260505184028 48 59 1.0 4.0 0.00 0.71 0.00 84 1023.6
20260505183525 47 17 1.0 5.0 0.00 0.71 0.00 85 1023.5
20260505183026 47 5 1.0 8.0 0.00 0.71 0.00 84 1023.5
20260505182526 47 293 3.0 8.0 0.00 0.71 0.00 81 1023.5
20260505182025 48 21 2.0 4.0 0.00 0.71 0.00 83 1023.5
20260505181528 48 37 1.0 4.0 0.00 0.71 0.00 83 1023.5
20260505181024 47 360 2.0 5.0 0.00 0.71 0.00 84 1023.5
20260505180523 47 141 2.0 5.0 0.00 0.71 0.00 81 1023.6
20260505180025 48 62 1.0 6.0 0.00 0.73 0.00 80 1023.5
20260505175522 48 31 2.0 6.0 0.00 0.73 0.00 83 1023.4
20260505175020 47 61 2.0 6.0 0.00 0.73 0.00 81 1023.3
20260505174519 47 17 1.0 4.0 0.00 0.73 0.00 86 1023.4
20260505174021 45 24 1.0 4.0 0.00 0.73 0.00 87 1023.4
20260505173517 44 355 1.0 4.0 0.00 0.73 0.00 88 1023.4
20260505173017 44 5 1.0 4.0 0.00 0.73 0.00 88 1023.4
20260505172513 44 40 1.0 3.0 0.00 0.73 0.00 88 1023.3
20260505172016 43 5 1.0 3.0 0.00 0.73 0.00 88 1023.3
20260505171521 43 63 2.0 8.0 0.00 0.73 0.00 88 1023.3
20260505171013 43 87 2.0 8.0 0.00 0.73 0.00 87 1023.3
20260505170511 43 69 1.0 3.0 0.00 0.73 0.00 87 1023.2
20260505170015 44 65 0.0 3.0 0.00 0.73 0.00 88 1023.2
20260505165511 44 66 1.0 3.0 0.00 0.73 0.00 86 1023.2
20260505165011 44 66 0.0 3.0 0.00 0.73 0.00 88 1023.1
20260505164508 43 68 0.0 3.0 0.00 0.73 0.00 88 1023.1
20260505164006 42 90 0.0 1.0 0.00 0.73 0.00 89 1023.1
20260505163505 42 90 0.0 2.0 0.00 0.73 0.00 89 1023.1
20260505163009 41 90 1.0 2.0 0.00 0.73 0.00 89 1023.1
20260505162502 41 126 0.0 2.0 0.00 0.73 0.00 89 1023.1
20260505162002 40 126 0.0 2.0 0.00 0.73 0.00 88 1023.1
20260505161502 39 126 0.0 1.0 0.00 0.73 0.00 87 1023.0
20260505161059 39 126 0.0 1.0 0.00 0.73 0.00 86 1022.9
20260505160558 38 126 0.0 2.0 0.00 0.73 0.00 85 1023.0
20260505153051 36 132 0.0 2.0 0.00 0.73 0.00 85 1022.7
20260505152547 35 132 0.0 3.0 0.00 0.73 0.00 86 1022.7
20260505152047 35 110 0.0 3.0 0.00 0.73 0.00 86 1022.6
20260505151548 35 110 0.0 2.0 0.00 0.73 0.00 86 1022.5
20260505151046 35 110 0.0 2.0 0.00 0.73 0.00 86 1022.5
20260505150547 35 123 0.0 1.0 0.00 0.73 0.00 86 1022.4
20260505140536 34 123 0.0 0.0 0.00 0.73 0.00 85 1021.8
20260505125032 33 123 0.0 0.0 0.00 0.73 0.00 87 1021.5
20260505124537 33 123 0.0 0.0 0.00 0.73 0.00 87 1021.4
20260505124031 34 123 0.0 0.0 0.00 0.73 0.00 87 1021.4
20260505123534 34 123 0.0 0.0 0.00 0.73 0.00 87 1021.4
20260505123030 34 123 0.0 0.0 0.00 0.73 0.00 87 1021.4
20260505122530 34 123 0.0 0.0 0.00 0.73 0.00 86 1021.4
20260505122031 34 123 0.0 0.0 0.00 0.73 0.00 86 1021.4
20260505121531 33 123 0.0 0.0 0.00 0.73 0.00 86 1021.4
20260505121031 33 123 0.0 0.0 0.00 0.73 0.00 86 1021.4
20260505120531 33 123 0.0 0.0 0.00 0.73 0.00 86 1021.3
20260505120030 33 123 0.0 0.0 0.00 0.73 0.00 86 1021.3
20260505115531 33 123 0.0 0.0 0.00 0.73 0.00 86 1021.3
20260505115030 33 123 0.0 0.0 0.00 0.73 0.00 86 1021.3
20260505114529 33 123 0.0 0.0 0.00 0.73 0.00 86 1021.4
20260505114029 33 123 0.0 0.0 0.00 0.73 0.00 86 1021.4
20260505113529 33 123 0.0 0.0 0.00 0.73 0.00 86 1021.4
20260505113029 33 123 0.0 0.0 0.00 0.73 0.00 86 1021.3
20260505112529 33 123 0.0 0.0 0.00 0.73 0.00 86 1021.3
20260505112032 33 123 0.0 0.0 0.00 0.73 0.00 86 1021.3
20260505111535 33 123 0.0 0.0 0.00 0.73 0.00 86 1021.3
20260505111031 33 123 0.0 0.0 0.00 0.73 0.00 87 1021.3
20260505110527 33 123 0.0 0.0 0.00 0.73 0.00 87 1021.4
20260505102026 34 123 0.0 0.0 0.00 0.73 0.00 88 1021.2
20260505101526 34 123 0.0 0.0 0.00 0.73 0.00 88 1021.1
20260505101026 34 123 0.0 0.0 0.00 0.73 0.00 88 1021.0
20260505100526 34 123 0.0 0.0 0.00 0.73 0.00 88 1021.1
20260505100030 34 123 0.0 0.0 0.00 0.73 0.00 88 1021.2
20260505095525 34 123 0.0 0.0 0.00 0.73 0.00 88 1021.3
20260505095023 34 123 0.0 0.0 0.00 0.73 0.00 87 1021.2
20260505094522 34 123 0.0 0.0 0.00 0.73 0.00 87 1021.2
20260505094022 33 123 0.0 1.0 0.00 0.73 0.00 87 1021.3
20260505093523 33 123 0.0 0.0 0.00 0.73 0.00 87 1021.4
20260505093022 33 123 0.0 0.0 0.00 0.73 0.00 87 1021.3
20260505092527 33 123 0.0 0.0 0.00 0.73 0.00 87 1021.3
20260505092022 33 123 0.0 0.0 0.00 0.73 0.00 87 1021.3
20260505091521 33 123 0.0 0.0 0.00 0.73 0.00 87 1021.4
20260505091023 33 123 0.0 0.0 0.00 0.73 0.00 87 1021.4
20260505090521 33 123 0.0 0.0 0.00 0.73 0.00 87 1021.5
20260505090021 33 123 0.0 0.0 0.00 0.73 0.00 87 1021.5
20260505085520 33 123 0.0 0.0 0.00 0.73 0.00 86 1021.5
20260505085019 33 123 0.0 0.0 0.00 0.73 0.00 86 1021.6
20260505084521 33 123 0.0 0.0 0.00 0.73 0.00 86 1021.6
20260505084018 33 123 0.0 0.0 0.00 0.73 0.00 85 1021.6
20260505083517 33 123 0.0 0.0 0.00 0.73 0.00 86 1021.7
20260505083018 33 123 0.0 0.0 0.00 0.73 0.00 85 1021.7
20260505082518 33 123 0.0 0.0 0.00 0.73 0.00 85 1021.6
20260505082018 33 123 0.0 0.0 0.00 0.73 0.00 85 1021.6
20260505081521 33 123 0.0 0.0 0.00 0.73 0.00 85 1021.7
20260505081017 33 123 0.0 0.0 0.00 0.73 0.00 84 1021.9
20260505080521 33 123 0.0 0.0 0.00 0.73 0.00 84 1021.9
20260505080016 33 123 0.0 0.0 0.00 0.73 0.00 84 1021.9
20260505075515 33 123 0.0 0.0 0.00 0.73 0.00 84 1022.0
20260505075014 33 123 0.0 0.0 0.00 0.73 0.00 84 1022.0
20260505074510 33 123 0.0 0.0 0.00 0.73 0.00 84 1022.1
20260505074010 33 123 0.0 0.0 0.00 0.73 0.00 84 1022.1
20260505073510 33 123 0.0 0.0 0.00 0.73 0.00 85 1022.0
20260505073011 33 123 0.0 0.0 0.00 0.73 0.00 85 1022.1
20260505072508 33 123 0.0 0.0 0.00 0.73 0.00 85 1022.1
20260505072100 33 123 0.0 0.0 0.00 0.73 0.00 85 1022.0
20260505071619 33 123 0.0 0.0 0.00 0.73 0.00 85 1021.8
20260505071059 33 123 0.0 0.0 0.00 0.73 0.00 85 1021.6
20260505070601 33 123 0.0 1.0 0.00 0.73 0.00 85 1021.5
20260505070111 33 123 0.0 1.0 0.00 0.73 0.73 86 1021.5
20260505065557 33 123 0.0 0.0 0.00 0.73 0.73 85 1021.5
20260505065057 33 123 0.0 0.0 0.00 0.73 0.73 85 1021.5
20260505064600 33 123 0.0 0.0 0.00 0.73 0.73 86 1021.5
20260505064101 33 123 0.0 0.0 0.00 0.73 0.73 85 1021.4
20260505063557 33 123 0.0 0.0 0.00 0.73 0.73 85 1021.4
20260505063056 33 123 0.0 0.0 0.00 0.73 0.73 85 1021.4
20260505062557 33 123 0.0 0.0 0.00 0.73 0.73 85 1021.4
20260505062059 33 123 0.0 0.0 0.00 0.73 0.73 85 1021.5
20260505061600 33 123 0.0 0.0 0.00 0.73 0.73 85 1021.5
20260505061058 33 123 0.0 0.0 0.00 0.73 0.73 85 1021.7
20260505060555 33 121 0.0 0.0 0.01 0.73 0.73 86 1021.8
20260505060055 33 121 0.0 0.0 0.02 0.73 0.73 85 1021.6
20260505055555 33 121 0.0 0.0 0.02 0.73 0.73 86 1021.9
20260505055055 33 121 0.0 0.0 0.02 0.73 0.73 85 1021.8